Dewpoint
58 57 56 55 55 55 53 51 49 47 45 44 43 42 41 44 45 47 49 52 55 56 55 54 54 53 52 52 53 53 53 53 53 53 54 54 55 55 55 55 55 55 54
58 56 55 56 56 55 53 51 49 48 47 46 45 44 43 42 39 41 44 44 53 54 54 54 55 54 53 53 53 53 53 53 53 53 53 53 53 54 54 54 54 54 54
56 56 56 56 56 55 53 52 50 49 47 47 47 46 46 44 42 39 40 42 43 50 51 51 51 52 52 52 52 52 53 54 54 54 54 54 54 54 54 54 55 55 55
56 56 56 57 56 55 53 50 49 48 48 49 47 45 42 45 42 40 41 43 45 46 50 51 51 51 50 51 52 53 53 53 53 53 53 54 54 55 55 54 54 54 55
56 56 56 56 55 54 51 49 49 48 49 48 45 43 43 43 41 40 44 45 46 46 45 48 47 48 48 48 49 50 50 51 51 50 51 52 53 53 53 53 53 53 54
57 57 56 54 52 51 50 50 49 49 49 48 41 42 43 42 41 43 44 43 44 43 45 43 38 43 44 43 45 45 47 47 46 45 44 45 46 46 47 49 50 50 50
56 55 54 53 52 51 51 50 50 49 48 47 46 43 43 44 44 45 45 44 41 41 43 40 41 41 38 42 44 42 41 42 43 43 44 44 45 45 45 45 45 45 46
55 54 54 53 52 51 50 49 49 49 48 48 45 44 40 41 44 44 44 44 43 40 40 37 40 40 40 38 37 36 40 42 43 45 45 45 45 45 46 46 45 45 45
55 54 53 53 52 52 50 49 49 48 47 48 47 43 38 36 42 44 45 44 41 38 37 36 39 38 38 31 31 34 38 40 42 44 45 45 45 45 45 45 45 46 46
54 54 52 52 52 51 50 50 49 49 48 47 47 45 46 46 38 29 41 42 39 37 34 31 37 38 34 29 31 35 38 38 40 42 43 44 44 44 44 44 44 44 44
53 52 52 52 51 51 50 50 49 49 47 44 43 43 44 44 43 37 28 32 31 30 28 33 36 37 33 28 30 33 36 37 38 38 40 42 43 42 42 43 43 43 43
52 52 51 51 50 49 49 49 48 46 46 46 45 45 43 40 40 38 35 31 26 29 31 35 36 37 32 28 30 34 35 35 37 37 38 40 40 40 40 40 40 41 45
51 51 50 49 48 48 47 47 44 42 42 41 38 36 36 35 37 35 32 26 27 27 31 29 34 36 28 29 30 33 34 33 35 37 36 37 37 37 38 38 38 38 40
51 49 47 46 44 41 39 38 35 34 34 35 34 34 34 34 35 35 32 29 20 23 26 24 29 35 29 29 31 33 31 33 34 35 36 35 36 37 37 37 37 38 38
48 44 41 39 36 36 35 33 32 32 32 33 33 34 34 35 35 35 34 34 29 18 17 26 25 29 31 30 31 32 31 33 34 34 35 35 35 34 36 36 36 36 37
41 37 36 34 33 32 31 32 32 33 32 33 34 33 33 34 35 34 35 34 34 31 26 28 26 30 30 31 30 31 30 32 33 32 33 32 33 34 35 36 37 37 39
36 33 32 31 30 30 31 31 31 32 31 32 32 32 32 33 32 32 33 33 33 34 30 28 28 29 29 29 30 29 30 30 31 31 31 32 32 34 35 36 36 38 39
33 31 30 29 28 29 28 28 27 29 29 29 30 31 31 29 29 31 31 31 32 32 30 26 27 27 28 29 28 29 29 29 29 29 30 29 31 33 33 35 36 37 38
29 29 28 28 28 28 28 28 29 29 29 29 29 29 29 28 28 30 31 31 30 29 30 29 28 28 28 28 28 27 27 27 28 29 29 31 33 34 33 34 37 39 39
29 29 29 29 29 29 29 29 29 29 29 29 28 27 27 29 31 30 29 28 27 29 29 27 26 26 26 26 26 26 25 26 26 27 29 31 33 33 33 35 38 39 42
31 31 30 31 31 30 29 29 29 28 27 26 26 27 29 30 29 27 26 28 29 28 27 26 25 25 25 25 24 25 26 27 27 28 30 32 32 33 34 37 37 39 42
33 33 33 33 31 30 32 31 30 28 25 23 24 26 27 27 26 26 28 28 28 27 26 26 25 24 23 24 24 26 29 27 25 29 29 33 32 32 33 37 38 39 43
34 33 33 33 33 35 35 32 28 24 23 25 25 24 23 23 25 26 27 28 28 28 28 27 26 25 25 25 27 27 26 26 27 29 32 30 31 32 33 35 38 39 42
31 31 31 31 32 34 32 28 25 23 23 24 25 23 24 24 25 27 28 27 27 27 27 28 28 28 29 29 29 28 28 29 30 29 30 28 31 30 32 35 37 38 42
28 28 29 30 31 31 30 26 23 23 23 24 24 23 24 24 27 27 27 26 25 25 27 28 28 26 27 27 26 27 26 27 26 27 29 31 29 29 31 33 34 37 41
24 26 26 26 28 27 28 26 24 23 23 23 23 23 23 25 26 26 26 25 25 26 27 26 25 26 26 27 27 27 28 28 28 26 30 28 27 29 27 34 33 33 34
Wind_Speed
6 5 6 6 7 6 6 7 6 6 7 6 6 6 6 6 6 5 5 10 10 9 10 10 10 11 11 12 12 12 12 12 12 13 13 14 14 15 16 16 17 17 17
6 7 7 6 6 5 6 6 6 5 6 6 7 6 6 5 5 5 5 7 11 13 12 11 11 12 12 12 12 12 13 13 13 14 14 15 16 16 17 18 18 18 19
8 7 6 6 5 5 6 5 6 5 6 5 6 5 4 5 5 7 7 8 9 15 16 15 15 15 15 15 14 14 15 16 17 17 18 17 17 18 19 19 20 20 21
9 8 6 5 5 5 5 6 5 5 6 6 5 5 5 5 8 9 10 11 11 10 13 17 17 17 17 17 17 16 17 17 18 18 19 21 22 23 22 23 22 22 23
9 8 7 7 5 5 5 4 6 4 6 6 6 7 8 8 9 10 13 13 12 11 9 13 15 17 16 17 17 17 18 18 20 21 22 24 24 23 24 25 26 25 26
9 10 8 8 6 6 5 5 5 6 5 4 7 10 10 9 8 10 11 11 11 11 9 11 11 11 17 18 19 19 19 21 22 22 23 23 23 25 26 28 28 29 29
12 10 8 7 5 5 5 3 3 5 8 4 4 4 5 7 8 8 6 7 10 10 9 12 10 11 12 17 20 20 21 22 23 23 22 23 24 25 26 26 27 28 30
11 10 10 8 7 6 5 4 3 3 4 9 3 2 3 2 4 3 3 5 8 8 10 12 11 12 11 12 16 19 22 22 22 22 22 23 24 25 26 27 28 28 29
13 12 10 8 7 5 5 4 4 3 4 6 8 2 2 2 2 1 1 3 7 6 7 9 10 11 11 13 16 17 22 23 23 23 23 24 24 25 26 27 29 30 31
10 11 12 9 8 7 6 5 4 5 4 4 4 8 8 3 2 1 1 0 8 6 8 8 6 8 11 14 17 18 24 26 26 26 26 26 26 27 28 29 30 31 32
9 12 11 10 9 7 7 6 6 6 4 5 3 3 4 5 5 2 4 5 5 7 7 5 4 7 10 16 16 17 22 24 23 25 26 26 26 27 29 29 31 33 33
9 10 11 10 9 8 7 7 7 8 8 8 7 6 4 3 2 3 2 4 8 3 5 3 2 3 5 13 15 19 22 25 25 27 28 27 28 29 30 31 32 33 34
8 11 10 10 9 9 9 8 9 8 7 8 8 8 7 6 3 2 1 3 4 3 2 1 0 1 8 14 16 21 22 24 26 27 29 29 30 31 31 34 35 35 36
14 14 12 11 12 12 12 11 10 9 9 9 9 8 7 7 6 4 2 3 6 3 3 3 3 1 13 17 18 24 20 24 28 28 28 29 31 32 33 35 36 37 38
12 15 14 14 14 14 14 12 11 11 10 10 9 8 8 6 5 5 5 2 1 6 6 3 5 4 19 20 19 21 22 25 28 29 29 31 32 36 35 37 39 39 39
18 17 15 15 15 14 13 13 12 10 12 8 7 8 7 5 5 4 3 1 1 2 7 4 8 21 22 21 21 23 23 25 23 28 30 32 36 38 37 38 42 41 42
19 19 18 16 16 15 13 13 12 12 12 11 8 7 7 5 3 3 3 3 1 2 8 15 14 20 22 23 23 22 21 21 20 27 31 35 37 38 39 42 43 42 42
18 19 18 17 15 14 12 14 12 11 13 11 10 7 5 3 3 3 4 4 3 4 7 17 19 17 20 22 22 22 19 18 20 24 34 33 34 36 42 42 42 41 41
20 19 19 19 17 14 13 11 11 11 12 10 9 6 4 3 4 4 4 4 6 7 8 13 18 16 18 18 19 18 18 19 19 26 29 30 32 39 40 38 39 41 39
21 19 19 18 20 18 14 12 12 11 11 9 9 6 4 5 4 5 5 7 8 10 10 13 16 17 18 17 17 20 21 18 23 21 21 24 33 34 34 34 35 38 38
20 22 15 16 18 19 16 13 11 11 9 11 6 5 5 5 7 7 7 8 9 10 12 14 17 17 18 19 20 19 23 24 22 18 21 22 20 21 22 25 27 36 29
20 22 22 11 15 15 17 17 13 10 9 9 4 5 5 5 6 7 7 9 11 13 14 14 16 17 20 19 19 22 21 23 20 16 28 23 20 20 20 19 30 36 32
20 19 19 17 14 15 18 17 14 10 9 7 5 6 4 4 6 6 7 9 11 12 13 15 16 17 21 20 22 22 22 22 23 23 21 23 18 19 19 18 26 31 17
22 22 18 17 17 17 17 16 13 11 8 7 6 4 3 5 6 9 9 12 12 11 11 11 15 19 19 21 21 22 24 24 19 16 14 18 14 19 18 14 22 28 14
19 20 18 17 18 16 16 13 12 8 8 7 5 4 5 6 9 12 11 11 12 12 11 13 16 21 22 22 19 18 19 20 24 21 15 6 12 19 11 9 14 21 18
20 18 17 15 17 16 15 12 9 8 7 4 3 4 7 8 12 13 11 11 13 15 15 17 17 17 18 19 20 16 18 20 20 19 2 10 12 9 9 2 8 13 12
Wind_Direction
113 105 100 90 79 75 74 72 66 62 64 67 63 58 54 52 50 47 48 37 35 39 38 35 33 29 24 20 15 9 3 354 346 340 334 331 329 328 327 326 325 323 321
135 123 119 103 92 88 89 81 74 65 54 45 51 47 50 51 58 62 58 51 50 49 45 41 35 27 17 11 6 1 357 352 347 340 332 327 323 320 316 314 312 310 309
146 134 127 116 102 93 92 80 71 67 58 47 43 34 42 49 63 67 64 63 60 54 54 52 46 37 27 17 8 0 353 347 342 338 333 326 319 314 309 307 305 302 300
151 144 136 122 114 98 92 79 58 62 53 33 33 35 43 82 84 82 76 72 70 65 55 46 41 32 21 13 6 1 357 353 349 345 338 330 325 322 318 313 308 306 301
160 151 147 132 126 109 89 86 61 58 36 29 56 65 66 79 86 94 84 71 65 57 50 45 39 32 25 18 11 6 360 357 353 346 339 334 330 326 321 315 311 308 305
151 144 141 132 123 109 93 86 89 69 51 42 89 76 72 73 92 99 88 74 63 50 47 46 23 29 29 22 16 9 6 357 349 344 340 336 332 326 320 317 315 313 311
149 146 137 127 121 111 105 109 105 68 42 35 131 94 84 70 94 103 90 77 53 39 40 33 37 28 20 24 21 12 2 353 346 341 337 334 330 328 325 321 318 315 313
154 149 143 138 133 122 106 84 96 120 61 27 111 124 139 137 94 132 70 61 41 25 35 30 34 35 32 29 13 7 2 354 348 342 339 334 331 328 324 320 317 314 311
154 146 139 135 129 125 115 94 81 102 120 49 48 106 138 163 327 183 172 51 19 39 27 26 38 38 36 22 9 1 356 351 345 340 335 332 329 326 324 322 320 317 315
147 144 139 141 136 129 121 111 103 106 119 126 75 51 62 73 66 2 153 109 1 25 9 13 38 43 35 14 4 357 353 348 344 341 335 330 329 328 326 322 319 316 313
149 142 145 144 141 133 126 125 112 107 104 113 115 131 81 78 60 57 305 319 352 356 4 18 37 37 31 10 355 347 342 339 338 337 333 329 326 325 322 319 317 313 309
150 144 145 144 139 132 131 124 117 110 109 107 100 88 96 97 58 44 314 315 316 282 300 340 90 60 24 356 345 339 337 338 334 333 331 329 328 325 321 318 314 312 308
165 162 151 147 138 133 123 121 114 107 101 102 100 94 88 85 98 87 53 311 304 311 288 264 47 79 0 349 340 338 333 336 334 328 329 330 328 325 322 320 316 312 308
172 157 150 142 136 128 123 118 109 102 103 99 97 87 88 78 76 82 91 10 328 297 294 317 278 220 350 343 334 335 334 333 331 327 326 327 327 323 320 318 314 312 310
156 149 149 142 136 131 133 130 123 116 114 115 109 103 91 75 78 77 78 79 51 330 312 316 311 310 338 335 334 336 333 330 329 329 327 326 324 325 321 323 318 314 312
150 149 147 142 137 136 133 128 121 121 113 97 93 100 97 88 78 67 84 97 93 253 286 319 316 321 329 327 330 334 331 327 326 327 325 326 323 321 319 321 320 314 313
154 151 147 144 145 142 139 133 131 129 117 112 105 99 92 83 91 62 46 36 1 263 282 298 306 316 319 324 325 329 328 325 324 324 324 324 324 322 322 319 319 315 313
153 147 143 139 135 137 137 138 134 132 124 124 114 106 91 78 49 41 28 6 327 302 300 301 310 313 315 320 319 321 320 320 323 317 324 321 322 321 322 321 319 318 313
146 143 140 138 133 132 126 119 118 125 123 120 113 103 90 59 37 21 5 332 324 321 309 303 305 311 312 317 318 319 322 325 325 322 317 317 324 324 324 323 322 322 317
143 140 138 134 131 126 120 122 128 130 117 116 99 97 83 57 38 6 344 336 331 326 323 317 312 316 319 325 322 325 328 329 325 320 318 322 323 325 323 326 321 322 319
131 124 116 131 134 130 134 140 135 124 132 104 92 83 64 69 29 1 336 337 331 329 326 323 321 322 328 332 333 326 318 321 324 318 324 320 321 322 327 327 323 334 342
124 128 130 149 135 130 143 138 132 129 111 99 117 83 62 45 15 345 339 335 333 331 323 321 319 320 320 320 319 319 316 325 320 332 326 317 327 319 329 325 331 344 348
131 132 135 139 129 127 136 131 125 117 110 113 98 66 47 16 350 327 325 323 319 320 312 312 310 311 312 314 314 316 316 314 313 315 314 314 321 320 329 324 332 347 356
144 136 135 137 131 127 132 121 119 111 119 104 84 57 25 358 346 342 332 332 326 308 305 311 311 309 308 315 316 314 309 307 305 307 317 304 326 323 324 325 339 356 36
139 134 134 132 121 132 125 122 110 135 107 93 66 38 15 354 339 347 344 334 324 324 323 321 320 318 317 317 320 317 316 312 310 318 320 288 317 318 313 321 348 358 43
128 128 122 117 128 117 121 122 133 108 99 78 56 38 11 357 347 346 346 339 333 337 339 338 326 325 322 313 307 311 305 301 307 317 331 329 316 339 317 332 357 1 2